{"data":{"norad_id":49754,"intl_designator":"2021-115AG","name":"STARLINK-3193","alt_names":[],"object_type":"PAYLOAD","status":"ACTIVE","operator":null,"country":"US","launch_date":"2021-12-02","launch_site_code":"AFETR","launch_vehicle":null,"mission":null,"orbit_class":"UNKNOWN","rcs_meters":null,"size_class":null,"mass_kg":null,"dimensions":null,"purposes":["comms"],"wikipedia_slug":null,"has_3d_model":false,"image_url":null,"decayed_at":null,"tle_current":{"epoch":"2026-05-25T01:18:32.808096Z","epoch_age_seconds":80511,"freshness":"FRESH","line1":"1 49754U 21115AG  26145.05454639  .00000984  00000+0  79888-4 0  9997","line2":"2 49754  53.2135 156.4119 0001038  80.6162 279.4947 15.08843161247206","mean_motion":15.08843161,"eccentricity":0.0001038,"inclination_deg":53.2135,"raan_deg":156.4119,"arg_perigee_deg":80.6162,"mean_anomaly_deg":279.4947,"bstar":7.9888e-5,"rev_number":24720,"period_min":95.43735473776,"perigee_km":539.01565208708,"apogee_km":540.45180205002,"semimajor_km":6917.8707270685,"source":"CELESTRAK","updated_at":"2026-05-25T13:38:16.837769Z"}}}